Location: Kuffner-Sternwarte
(48.2130°N, 16.2960°E)
Time: 08:29:25
(UTC+01:00)

COROT - Pass Details

Date: 16 July 2018
Orbit: 600 x 889 km, 90.0° (Epoch: 20 November)

Event Time Altitude Azimuth Distance (km) Brightness Sun altitude
Rises 04:24:43 0° 115° (ESE) 3,488 9.7 -6.8°
Reaches altitude 10° 04:28:46 10° 88° (E) 2,558 9.5 -6.3°
Maximum altitude 04:30:56 12° 65° (ENE) 2,394 10.0 -6.1°
Drops below altitude 10° 04:33:06 10° 43° (NE) 2,548 10.6 -5.8°
Sets 04:37:06 0° 15° (NNE) 3,459 10.4 -5.3°
